User: anonymous   Login
Location: Newark
(43.6583°N, 1.6617°E)
Time: 08:06:24
(UTC+00:00)
Language:

Transit 2A - Orbit

View from above orbital plane
View from above orbital plane
View from above satellite
View from above satellite

Ground track
Ground track

The orbit data is extracted from the following two-line orbital elements,

1    45U 60007A   19230.91489532 -.00000063 +00000-0 +11238-4 0  9997
2    45 066.6941 100.7679 0255608 178.2754 181.9291 14.33646270022329
Epoch (UTC): 18 August 2019 21:57:26
Eccentricity: 0.0255608
inclination: 66.6941°
perigee height: 596 km
apogee height: 962 km
right ascension of ascending node: 100.7679°
argument of perigee: 178.2754°
revolutions per day: 14.33646270
mean anomaly at epoch: 181.9291°
orbit number at epoch: 2232

The dashed part of the orbit path shows where the satellite is in the earth's shadow,  

DLR